Location: Gloden
(48.4833°N, 15.3167°E)
Time: 07:24:11
(UTC+00:00)

BREEZE-M DEB (TANK) - Pass Details

Date: 15 December 2019
Orbit: 296 x 14275 km, 49.6° (Epoch: 16 January)

Event Time Altitude Azimuth Distance (km) Brightness Sun altitude
Exits shadow 03:22:16 69° 176° (S) 1,209 4.1 -32.1°
Maximum altitude 03:22:30 69° 160° (SSE) 1,168 4.1 -32.1°
Drops below altitude 10° 03:26:31 10° 77° (ENE) 1,983 6.3 -31.4°
Sets 03:27:53 0° 74° (ENE) 2,586 7.1 -31.2°
